Погода в Широковском

Россия / Пермский край     58°50′27″N   57°46′58″E
темп.,
°C
ветер,
м/с
пор.,
м/с
влажн.,
%
обл.,
%
осадки,
мм/ч
давл.,
гПа
погр.,
м
8 мая, сб
сб823:00+12ю2974100 0.1 1016217
02:00+9ююв2485100 0.0 101672
05:00+9ю2586100 0.1 1017128
08:00+12ю3776100 0.1 1017260
11:00+16юз465387 0.7 10171298
14:00+17з3447100 0.9 10171803
17:00+15зсз3360100 2.1 1017748
20:00+13всв1174100 1.2 101711
9 мая, вс
вс923:00+10в118763 1.2 101810
02:00+8в118849 0.0 101910
05:00+8в118868 0.0 101910
08:00+12вюв147229 0.0 1019211
11:00+17юв35545 0.0 1019997
14:00+19ююв3540100 0.0 10182486
17:00+17юв375099 0.0 1018446
20:00+16в11585 0.0 101812
10 мая, пн
пн1023:00+11юв117123 0.0 102011
02:00+10вюв117333 0.0 102011
05:00+9вюв21805 0.0 102112
08:00+14ююв2561100 0.0 1021198
11:00+19ю473910 0.0 10211289
14:00+21ююз573096 0.0 10202650
17:00+21юз4634100 0.0 10202702
20:00+14зсз4980100 0.0 1022707
11 мая, вт
вт1123:00+9сз3694100 3.1 1024518
02:00+8сз5993100 2.4 1024562
05:00+6ссз498899 2.4 1026631
08:00+5ссз498235 0.0 1028735
11:00+10ссз69470 0.0 10281188
14:00+13ссз573660 0.0 10271568
17:00+14ссз463568 0.0 10281680
20:00+11сз264870 0.0 1028259
12 мая, ср
ср1223:00+8з1161100 0.0 102810
02:00+9юз1160100 0.0 102831
05:00+8зюз21080100 0.4 1027416
08:00+9з41093100 0.9 1026445
11:00+12зсз3891100 0.9 1025704
14:00+14сз3780100 0.1 1025980
17:00+17ссз466451 0.1 10251224
20:00+15с2275100 0.0 102561